sat.trackr.live / text

‹ back to catalog

STARLINK-5045

NORAD 53900 · 2022-119Q

PAYLOAD ACTIVE UNKNOWN

§ Identity

Operator
Country
US
Launch date
2022-09-24
Launch site
AFETR
Launch vehicle
Mass (kg)
RCS (m²)

Purposes: comms

External: N2YO · Heavens-Above · Gunter

§ Orbital elements

Epoch: 2026-09-19T11:16:37.204320Z

Period
93.85 min
Inclination
53.1611°
Eccentricity
0.0001178
Mean motion
15.34388749 rev/d
Perigee alt
461.9 km
Apogee alt
463.5 km
Semi-major
6,840.9 km
B*
4.3555e-5
RAAN
168.3124°
Arg perigee
91.6653°
Mean anomaly
268.4485°
Rev number
22,101

§ Raw data

STARLINK-50451 53900U 22119Q   26262.46987505  .00001095  00000+0  43555-4 0  99942 53900  53.1611 168.3124 0001178  91.6653 268.4485 15.34388749221013

JSON: /api/v1/satellites/53900 · /tle

For live sub-satellite position, see the globe view (requires WebGL).

§ Visibility from observer

Set your observer location to see the next 7 days of passes ≥ 10°. The values pass through the URL so the page stays shareable.

No JS? Fill the form by hand. The geolocation button needs JavaScript.